FENGYUN 1C DEB, 32123

Orbit data source: Space-Track

FENGYUN 1C DEB, 32123 is space debris in SSO originally from a launch on Mon, 10 May 1999 UTC launched from the Taiyaun Space Center, China (TSC). Fengyun 1C debris stems from the Chinese weather satellite Fengyun-1C, which was intentionally destroyed by a Chinese anti-satellite missile in 2007. This event dramatically increased the amount of space debris, with thousands of trackable fragments posing hazards to satellites and human spaceflight. The Fengyun 1C debris cloud has become a focal point in discussions about space sustainability and the need for international regulations to prevent the creation of new debris.

Loading next visibility...
Identifier
32123, 1999-025CRR
Orbit
SSO
Country
Flag of CNCN / PRC
Related business
Manufacturer
Unknown
Mission
Spacecraft
Bus & Motor
Unknown
Mass
Unknown
Launch date (UTC)
1999-05-10 (26 years ago)
Launch vehicle
Unknown
Launch site
Taiyaun Space Center, China (TSC)
Object type
Payload
Rocket body
Debris
Shape & HBR
Unknown shape, 0.1 m
Radar Cross Section
Small (<0.1 m²)

Expand to show TLE details & history
Last TLE update: 13 hours ago

TLE from 13 hours ago
0 FENGYUN 1C DEB
1 32123U 99025CRR 25290.69369800  .00002586  00000-0  44564-3 0  9992
2 32123  98.9398  93.9761 0161996 104.5418 271.8831 14.61240125705568
Epoch: 2025-10-17T16:38Z
TLE epoch observation values (Epoch: 2025-10-17T16:38:55.507Z)
Latitude
14.35919°
Longitude
175.51391°
Altitude
689.5 km
Speed
7.514 km/s
True Right ascension
06h 06m 43s
True Declination
14° 16' 34"
Sunlit
Object was in daylight at epoch
Visualization orbit readout
Latitude
Unknown
Longitude
Unknown
Altitude
Unknown
Speed
Unknown
Apparent Right ascension
Unknown
Apparent Declination
Unknown
Sunlit
N/A
Visualization observer readout
Local Sidereal Time
00:07:47
Azimuth
Unknown
Elevation
Unknown
Doppler factor
Unknown
Orbital elements
Apogee altitude
800.727 km
Perigee altitude
571.846 km
Semi-major axis
7,064.424 km
Eccentricity
0.0162
Inclination
98.9398°
RAAN
93.9761°
Arg. of periapsis
104.5418°
True anomaly
270.02685°
Mean anomaly
271.8831°
Eccentric anomaly
270.95506°
Mean motion
3.65534 °/min
Orbital period
98.49 mins
BSTAR
0.00044564
Loading maneuver chart data...
Computing Atmospheric mass density...

Documentation

Showing up to 5 results
|